"Pseudo-MPEC" for C3UMFN1

Created 2023 Oct 4 11:22:04 UT using Find_Orb

Click here for an explanation of pseudo-MPECs

 
 Astrometry: 
     C3UMFN1*1C2023 10 03.26978123 32 29.468-22 11 40.52   ~A37M 18.01GVNEOCP703
     C3UMFN1 1C2023 10 03.27532723 32 24.281-22 09 34.92   ~A37M 19.12GVNEOCP703
     C3UMFN1 1C2023 10 03.28641523 32 14.183-22 05 28.57   ~A37M 18.76GVNEOCP703
     C3UMFN1  C2023 10 03.30406523 31 58.055-21 58 57.76   ~A37b 18.27GVNEOCPI52
     C3UMFN1  C2023 10 03.30435523 31 57.803-21 58 51.02   ~A37b 18.20GVNEOCPI52
     C3UMFN1  C2023 10 03.30449023 31 57.644-21 58 48.29   ~A37b 18.32GVNEOCPI52
     C3UMFN1 KC2023 10 03.35528923 31 12.896-21 39 55.40   ~A38q 18.46GVNEOCPI52
     C3UMFN1 KC2023 10 03.35569623 31 12.522-21 39 46.40   ~A38q 18.35GVNEOCPI52
     C3UMFN1 KC2023 10 03.35610323 31 12.191-21 39 37.12   ~A38q 18.41GVNEOCPI52
     C3UMFN1 KC2023 10 03.35651523 31 11.831-21 39 28.04   ~A38q 18.42GVNEOCPI52
     C3UMFN1  C2023 10 03MXY\6gjKS6X(jE6F1RmGakrcP[-iO;bVsA8/c\4pLlxp7hp@dJ[UM28
     C3UMFN1  C2023 10 03vE_X,(aGk=tf/]OkrEdw4VAstrometry?+X9I\uXYt=kER'jI!WXM28
     C3UMFN1  C2023 10 038,I0,AO]V_#;qd.7Bg192k^r)gM`EfFHP,jYjrm;j/Yx!U?2nQ$,M28
     C3UMFN1 hC2023 10 03oP56$O[Dv]N(M.L'?BJ)UH*0Ap$LNeA%1]Pl[*/bWq5_x.[7kKu!L01
     C3UMFN1 hC2023 10 03FlZstEnSy6OLK/V[rhR-M*;b--S2(/XNiQIhFgmqR/Sxw,+$j!@wL01
     C3UMFN1 hC2023 10 03.tc6]veLMhnMD[S7R`0YIc1Fo=$:rDkrUpUQ[[X#O`H1m_=SoPYbL01
     C3UMFN1 hC2023 10 03(YZBQY4WQCMaNcB,fLFh7:NTGw_$0Gm;iWtWh%;fNXc5yi[gOo4wL01
     C3UMFN1 hC2023 10 03Gs!1@[$PnWJKE*;J.M3CLYn\bcq_0D:Bredacted;?P?Hw+Nv5TkL01
     C3UMFN1 KC2023 10 03.88470123 26 18.90 -18 43 09.4    ~A3Mb 18.5 GXNEOCP595
     C3UMFN1 KC2023 10 03.88919023 26 15.63 -18 41 44.9    ~A3Mb 18.8 GXNEOCP595
     C3UMFN1 KC2023 10 03.91685123 25 55.36 -18 33 03.1    ~A3Mb       XNEOCP595
     C3UMFN1 KC2023 10 03_b?M`E)s9@[#kug5icT?NfK_:!NnGg1fnK1xD%rY\cT#RDg-=_[=104
     C3UMFN1 7C2023 10 03K`Vf;*4bLy(@JnrHsj(U-62`ZyGx8\odBL*70\r(WBPOEItMX'=kZ84
     C3UMFN1 KC2023 10 03gxD4P]pEGlK+*6I^Lu@)rq3=@-DS4aDV9hDi%;ia:1k*5)W0J:(A104
     C3UMFN1 7C2023 10 03My;4CH#_lYx5#B:r1uclickZ%,K0AUg,Y[hT/hoCeF$dY#S]EHU0Z84
     C3UMFN1 7C2023 10 03C55O;EKJf1)Hy71A,T-$UeC4BvKAD[QApgKefvi-ar/:/@\pNCN)Z84
     C3UMFN1 KC2023 10 03.KrQHCrF$JBOkmn1C^*0MDtmjv#rhere%2DQ=FOiF-mh\^5+pXih104
     C3UMFN1 KB2023 10 03.95647523 25 33.41 -18 20 35.7    ~A3Nb 17.9 GVNEOCPI93
     C3UMFN1 KB2023 10 03.96034423 25 30.56 -18 19 23.5    ~A3Nb 17.7 GVNEOCPI93
     C3UMFN1 KB2023 10 03.96414923 25 27.79 -18 18 12.7    ~A3Nb 18.8 GVNEOCPI93
     C3UMFN1 KC2023 10 04bypascA=9Ejs1hJNhy=h-1WCIFNs%qAK2(Du$foriI,b4t2bfYPM858
     C3UMFN1 KC2023 10 04DapHbyAgJ].uoktEo64rvv`pb2N[!ZXL(@%#aO;I%d:ycc5Q51'u858
     C3UMFN1 KC2023 10 04[DwGr3explanation=NGuT)oY`Vb!g@t@]8/5Mtp#/:TVgAt;hIo858

Station data:
(104) San Marcello Pistoiese  (N44.064178 E10.803750)  Italy.  Observers P.
   Bacci, M. Maestripieri. Measurers P. Bacci, L. Tesi, G. Fagioli. 0.60-m
   reflector + CCD.
(595) Farra d'Isonzo  (N45.915731 E13.525780)  Italy.  Observers S. Aschi, E.
   Pettarin, G. Panterotto. Measurers S. Aschi, E. Pettarin. 0.40-m f/5.15
   reflector + CCD.
(703) Catalina Sky Survey  (N32.417003 W110.732640)  US/Arizona.  Observer E.
   J. Christensen. 0.68 m Schmidt + 10K CCD.
(858) Tebbutt Observatory, Edgewood  (N35.093869 W106.220000)  US/New Mexico.
    Observer F. B. Zoltowski. 0.16-m refractor + CCD0.51-m Schmidt-Cassegrain
   + CCD.
(I52) Steward Observatory, Mt. Lemmon Station  (N32.442544 W110.788920)
   US/Arizona.  Observers T. A. Pruyne, B. M. Africano, E. J. Christensen, G.
   A. Farneth, D. C. Fuls, A. R. Gibbs, A. D. Grauer, H. Gröller, J. A.
   Johnson, R. A. Kowalski, S. M. Larson, G. J. Leonard, D. Rankin, R. L.
   Seaman, F. C. Shelly, K. W. Wierzchoś. 1.0-m prime focus + CCD.
(I93) St Pardon de Conques  (N44.558708 W0.203000)  France.  Observers F.
   Losse, W. D'Anna. Measurer F. Losse. 0.40-m f/3.7 reflector + CCD.
(L01) Višnjan Observatory, Tičan  (N45.290897 E13.749300)  Croatia.
   Observers K. Korlević, D. Pujagic, V. Dobos. Measurers D. Pujagic, K.
   Korlević. 1.0-m f/2.9 reflector + CCD.
(M28) Lesedi Telescope-SAAO Observatory, Sutherland  (S32.379790 E20.810640)
   South Africa.  Observer N. Erasmus. 1.0-m f/8 Reflector + CCD.
(Z84) Calar Alto-Schmidt  (N37.224046 W2.548210)  Spain.  Observer F. Ocana.
   Measurers E. Schwab, D. Koschny, M. Micheli. 0.8-m f/3 Schmidt + CCD.

Orbital elements:  C3UMFN1
   Perihelion 2023 Jun 11.91305 +/- 0.019 TT = 21:54:47 (JD 2460107.41305)
Epoch 2023 Oct  4.0 TT = JDT 2460221.5   Earth MOID: 0.0090      AutoNEOCP
M 123.40505317 +/- 0.012            (J2000 ecliptic)
n   1.08167541 +/- 7.77e-5          Peri.  222.44526 +/- 0.0037
a   0.93987784 +/- 4.5e-5           Node    13.02660 +/- 0.0009
e   0.1251041 +/- 0.000106          Incl.    3.46983 +/- 0.0018
P   0.91/332.81d           H 26.67  G  0.15   U  6.4
q 0.82229522 +/- 0.000138    Q 1.05746045 +/- 5.07e-5
32 of 33 observations 2023 Oct. 3-4 (22.4 hr); mean residual 0".47
Residuals in arcseconds: 
231003 703  .23+  1.6-    231003 M28  .97-  .81+    231003 Z84  .22+  .29-    
231003 703  .53-  .96+    231003 M28  1.2-  .86+    231003 104  .56+  .09-    
231003 703  1.1+  1.1+    231003 L01  .21-  .04-    231003 Z84  .08+  .13-    
231003 I52  .06+  .35-    231003 L01  .07+  .11-    231003 Z84  .05+  .14-    
231003 I52  .21+  .06-    231003 L01  .23+  .05-    231003 104  .17+  .25-    
231003 I52  .30-  .34-    231003 L01  .50+  .41-    231003 I93  .72+  .09+    
231003 I52  .20+  .05-    231003 L01  .42-  .08-    231003 I93  .16+  .00     
231003 I52  .17-  .13-    231003 595  .69-  .43-    231003 I93  .00   .29-    
231003 I52  .06+  .06+    231003 595  .14-  .48-    231004 858  .14+  .46+    
231003 I52  .06-  .05-    231003 595  .48+  .05+    231004 858  .11-  .14+    
231003 M28( 1.6-  1.4+)   231003 104  .04+  .27-    231004 858  .12-  .40+    

Ephemerides (geocentric):
Date (UTC) HH   RA             Dec           delta  r     elong  mag " sig PA
---- --------  ------------   ------------  ------ ------ -----  --- --------
2023 10 04 11  23 21 24.134   -15 46 07.81  .01596 1.0146 152.3 18.9 .303 158
2023 10 04 12  23 21 04.901   -15 34 48.06  .01604 1.0146 152.3 18.9 .314 157
2023 10 04 13  23 20 45.902   -15 23 35.05  .01612 1.0147 152.3 19.0 .325 157
2023 10 04 14  23 20 27.134   -15 12 28.71  .01621 1.0148 152.4 19.0 .337 156
2023 10 04 15  23 20 08.593   -15 01 28.95  .01629 1.0148 152.4 19.0 .349 155
2023 10 04 16  23 19 50.275   -14 50 35.68  .01637 1.0149 152.4 19.0 .361 155
2023 10 04 17  23 19 32.175   -14 39 48.84  .01646 1.0150 152.5 19.0 .374 154
2023 10 04 18  23 19 14.291   -14 29 08.34  .01654 1.0150 152.5 19.0 .387 154
2023 10 04 19  23 18 56.618   -14 18 34.10  .01662 1.0151 152.5 19.0 .400 153
2023 10 04 20  23 18 39.154   -14 08 06.05  .01671 1.0152 152.5 19.0 .413 153
2023 10 04 21  23 18 21.895   -13 57 44.11  .01679 1.0152 152.6 19.0 .427 153
2023 10 04 22  23 18 04.836   -13 47 28.21  .01687 1.0153 152.6 19.1 .441 152
2023 10 04 23  23 17 47.976   -13 37 18.27  .01696 1.0154 152.6 19.1 .455 152
2023 10 05 00  23 17 31.311   -13 27 14.22  .01704 1.0154 152.6 19.1 .469 152
2023 10 05 01  23 17 14.838   -13 17 15.98  .01713 1.0155 152.6 19.1 .484 151
2023 10 05 02  23 16 58.553   -13 07 23.50  .01721 1.0156 152.6 19.1 .498 151
2023 10 05 03  23 16 42.454   -12 57 36.68  .01730 1.0156 152.7 19.1 .513 151
2023 10 05 04  23 16 26.537   -12 47 55.48  .01738 1.0157 152.7 19.1 .528 151
2023 10 05 05  23 16 10.801   -12 38 19.81  .01747 1.0158 152.7 19.1 .543 151
2023 10 05 06  23 15 55.241   -12 28 49.60  .01755 1.0158 152.7 19.1 .559 150
2023 10 05 07  23 15 39.855   -12 19 24.81  .01764 1.0159 152.7 19.1 .574 150
2023 10 05 08  23 15 24.641   -12 10 05.34  .01772 1.0159 152.7 19.2 .590 150
2023 10 05 09  23 15 09.596   -12 00 51.15  .01781 1.0160 152.7 19.2 .606 150
2023 10 05 10  23 14 54.717   -11 51 42.17  .01789 1.0161 152.7 19.2 .621 150
2023 10 05 11  23 14 40.002   -11 42 38.32  .01798 1.0161 152.7 19.2 .637 150
2023 10 05 12  23 14 25.448   -11 33 39.56  .01807 1.0162 152.7 19.2 .654 150
2023 10 05 13  23 14 11.053   -11 24 45.82  .01815 1.0163 152.7 19.2 .670 150
2023 10 05 14  23 13 56.815   -11 15 57.03  .01824 1.0163 152.7 19.2 .686 149
2023 10 05 15  23 13 42.730   -11 07 13.14  .01832 1.0164 152.7 19.2 .703 149
2023 10 05 16  23 13 28.797   -10 58 34.09  .01841 1.0165 152.7 19.2 .719 149
2023 10 05 17  23 13 15.014   -10 49 59.82  .01850 1.0165 152.7 19.3 .736 149
2023 10 05 18  23 13 01.378   -10 41 30.27  .01859 1.0166 152.7 19.3 .752 149
2023 10 05 19  23 12 47.887   -10 33 05.38  .01867 1.0167 152.6 19.3 .769 149
2023 10 05 20  23 12 34.539   -10 24 45.10  .01876 1.0167 152.6 19.3 .786 149
2023 10 05 21  23 12 21.332   -10 16 29.37  .01885 1.0168 152.6 19.3 .803 149
2023 10 05 22  23 12 08.264   -10 08 18.14  .01894 1.0169 152.6 19.3 .820 149
2023 10 05 23  23 11 55.333   -10 00 11.35  .01902 1.0169 152.6 19.3 .837 149
2023 10 06 00  23 11 42.537   -09 52 08.96  .01911 1.0170 152.6 19.3 .854 149
2023 10 06 01  23 11 29.875   -09 44 10.89  .01920 1.0170 152.6 19.3 .871 149
2023 10 06 02  23 11 17.343   -09 36 17.12  .01929 1.0171 152.5 19.3 .888 149
2023 10 06 03  23 11 04.941   -09 28 27.58  .01938 1.0172 152.5 19.4 .905 149
2023 10 06 04  23 10 52.666   -09 20 42.22  .01946 1.0172 152.5 19.4 .922 149
2023 10 06 05  23 10 40.517   -09 13 00.99  .01955 1.0173 152.5 19.4 .939 149
2023 10 06 06  23 10 28.492   -09 05 23.85  .01964 1.0174 152.5 19.4 .957 149
2023 10 06 07  23 10 16.590   -08 57 50.74  .01973 1.0174 152.4 19.4 .974 149
2023 10 06 08  23 10 04.808   -08 50 21.62  .01982 1.0175 152.4 19.4 0.99 149
2023 10 06 09  23 09 53.145   -08 42 56.45  .01991 1.0176 152.4 19.4 1.01 149
2023 10 06 10  23 09 41.600   -08 35 35.16  .02000 1.0176 152.4 19.4 1.03 149